Regional Weather Roundup
Issued by NWS

Home | Current Version | Previous Version | Text Only | Print | Product List | Glossary Off
Versions: 1 2 3 4 5 6 7 8 9 10 11 12 13 14 15 16 17 18 19 20 21 22 23 24 25 26 27 28 29 30 31 32 33 34 35 36 37 38 39 40 41 42 43 44 45 46 47 48 49 50

000
ASUS45 KSLC 270310
RWRUT

UTAH REGIONAL WEATHER ROUNDUP
NATIONAL WEATHER SERVICE SALT LAKE CITY UT
900 PM MDT TUE AUG 26 2014

UTZ001>011-023>025-270400-

NORTHERN UTAH

CITY           SKY/WX    TMP DP  RH WIND       PRES   REMARKS
HILL AFB       CLOUDY    67  48  51 SW14      30.16R
LOGAN          PTCLDY    66  49  54 S12       30.13R
OGDEN          CLOUDY    67  48  50 W10       30.14R
PROVO AIRPORT  MOCLDY    61  54  77 E6        30.19R
SALT LAKE CITY CLOUDY    67  47  48 S8        30.13R
VERNAL         CLOUDY    63  50  62 NE7       30.23R
WENDOVER       CLOUDY    63  52  67 E24G36    30.16R
HEBER CITY     CLOUDY    63  45  51 SE3       30.19R
WEST JORDAN    CLOUDY    64  54  68 CALM      30.17R

$$

UTZ012>022-026-027-270400-

SOUTHERN UTAH

CITY           SKY/WX    TMP DP  RH WIND       PRES   REMARKS
BRYCE CANYON   RAIN      48  45  89 S12       30.32R
CEDAR CITY     LGT RAIN  56  49  77 MISG      30.25R
MILFORD        CLOUDY    57  51  80 NE12      30.22R
MOAB/CYNLANDS  PTCLDY    66  51  58 SE6       30.15S
PRICE          CLOUDY    62  48  60 E9        30.23R
ST GEORGE      CLOUDY    70  55  60 NE17G23   30.04R THUNDER
KANAB          CLOUDY    61  48  63 NW18G24   30.21R

$$

REGIONAL REPORTS     COLORADO/ARIZONA

CITY           SKY/WX    TMP DP  RH WIND       PRES   REMARKS
CRAIG, CO      MOCLDY    63  47  55 VRB6      30.24R
GRAND JUNCTION CLOUDY    62  57  83 NE6       30.20R
RIFLE          CLOUDY    64  57  78 E3        30.21R
MONTROSE       RAIN      60  55  83 S7        30.29R
CORTEZ         HVY RAIN  56  54  93 W6        30.34R FOG
PAGE, AZ       MOCLDY    67  55  65 NE6       30.15R
GRAND CANYON     N/A    N/A N/A N/A MISG        N/A
KINGMAN        CLEAR     75  60  59 SE9       30.04R
FLAGSTAFF      PTCLDY    52  49  89 CALM      30.32R

$$

REGIONAL REPORTS    NEVADA/IDAHO/WYOMING

CITY           SKY/WX    TMP DP  RH WIND       PRES   REMARKS
LAS VEGAS, NV  PTCLDY    91  24   9 SW13      29.87R
ELY            PTCLDY    51  45  79 SE5       30.22R
ELKO           PTCLDY    64  42  44 CALM      30.14S
POCATELLO, ID  PTCLDY    68  51  54 CALM      30.14R
BURLEY         PTCLDY    65  52  62 CALM      30.11R
EVANSTON, WY   MOCLDY    55  46  71 N8        30.28R
ROCK SPRINGS   CLOUDY    55  46  71 SE14      30.29S

$$


USA.gov is the U.S. government's official web portal to all federal, state and local government web resources and services.